Location: Auttagershofen
(48.1940°N, 10.0237°E)
Time: 18:20:13
(UTC+00:00)

Okean 1-7 - Pass Details

Date: 18 January 2026
Orbit: 566 x 588 km, 82.5° (Epoch: 16 February)

Event Time Altitude Azimuth Distance (km) Brightness Sun altitude
Exits shadow 04:51:34 - 358° (N) 2,434 6.0 -21.5°
Reaches altitude 10° 04:52:58 10° 3° (N) 1,885 5.5 -21.3°
Maximum altitude 04:56:55 42° 75° (ENE) 833 4.1 -20.6°
Drops below altitude 10° 05:00:52 10° 147° (SSE) 1,882 6.1 -20.0°
Sets 05:03:08 0° 154° (SSE) 2,780 6.9 -19.6°
